Location: Cazarilh
(42.9578°N, 0.5819°E)
Time: 13:53:50
(UTC+00:00)

SJ-7 - Pass Details

Date: 11 December 2019
Orbit: 556 x 603 km, 97.7° (Epoch: 27 January)

Event Time Altitude Azimuth Distance (km) Brightness Sun altitude
Rises 05:56:33 0° 11° (N) 2,768 7.8 -14.4°
Reaches altitude 10° 05:58:42 10° 10° (N) 1,862 6.9 -14.0°
Maximum altitude 06:02:44 81° 283° (WNW) 571 4.2 -13.3°
Drops below altitude 10° 06:06:41 10° 197° (SSW) 1,834 7.0 -12.6°
Sets 06:08:48 0° 197° (SSW) 2,723 7.9 -12.3°
